星链-34026 (STARLINK-34026)

导读

STARLINK-34026是美国于2025年5月7日发射的星链系列卫星,属于SpaceX星链星座组网任务的一部分。星链计划旨在构建全球卫星互联网星座,为全球偏远地区、海洋等网络覆盖薄弱区域提供高速宽带服务,该卫星的成功发射进一步推进了星链星座的部署进程。

基本信息
目录编号:
63842
目录名称:
STARLINK-34026
国际标识:
2025-093G
轨道中心:
EARTH
卫星名称:
星链-34026
卫星全名:
星链-34026 (STARLINK-34026)
卫星状态:
在轨 (已飞行485 天)
发射日期:
2025-05-07 UTC
国别 :
美国 (US)
星等 :
--
轨道信息
数据来源 国际轨道数据
星历时间: 2026-09-04T02:19:56+0800
11小时前
查看轨道信息
半长轴: 6861.179km
偏心率: 0.0001036
轨道倾角: 42.997°
近地点辐角 255.767°
升交点赤经 152.461°
平近点角 104.306°
近地点: 482.331km
远地点: 483.753km
周期: 94.267分钟
每日圈数: 15.275825
详细信息
固有亮度:
5
最大亮度:
2.5
卫星平台:
Starlink V1.0
覆盖范围:
全球
运营商:
太空探索技术公司
运营商所在国:
美国
制造商(研发单位):
太空探索技术公司
制造商所在国:
美国
使用方式:
暂无
卫星简介
Starlink 计划是 SpaceX 推出的全球卫星互联网项目,通过发射低轨道卫星,为全球尤其是偏远地区提供高速、低延迟的互联网服务。自 2019 年起,Starlink 已部署数千颗卫星,旨在缩小全球数字鸿沟,推动互联网普及。该项目还为军事、航空等行业提供通信支持,带来广泛经济效益。
2D轨道图
3D轨道图
轨道高度分析图
轨道倾角分析图
轨道综合分析图
查看轨道综合分析图
交会数据列表
事件ID 空间交会对象 最接近时刻(TCA) 交会距离 交会风险概率(CRP) 交会风险指数(CRI) 操作
CDM_260904-103506-384206-396421
2026-09-04T
10:35:28+0000
0.455 km
远距离
1.754639E-4 高风险 0.8
CDM_260903-211506-384206-396421
2026-09-03T
21:15:10+0000
0.507 km
远距离
1.357545E-4 高风险 0.78
CDM_260903-194106-384206-396421
2026-09-03T
19:41:01+0000
1.481 km
极远距离
4.554869E-6 低风险 0.48
CDM_260904-120906-384206-396421
2026-09-04T
12:09:37+0000
1.708 km
极远距离
2.940893E-6 低风险 0.44
CDM_260903-224906-384206-396421
2026-09-03T
22:49:19+0000
2.168 km
极远距离
1.594919E-6 低风险 0.39
CDM_260905-021004-371106-384221
2026-09-05T
02:10:26+0000
2.722 km
极远距离
1.398325E-6 低风险 0.38
CDM_260904-090106-384206-396421
2026-09-04T
09:01:19+0000
2.484 km
极远距离
1.22372E-6 低风险 0.37